LNE1418 SEGU-SEQM

Flight info

Callsign LNE1418
Flight time 0h 38m
Altitude 23000
Route REGAP2 PAMIS
Aircraft A319/M-SDE3FGHIRWY/LB1

Departure

Time 2026-04-28 21:22
Airport José Joaquín de Olmedo International Airport (SEGU)

Arrival

Time 2026-04-28 22:00
Airport Mariscal Sucre International Airport (SEQM)
Time Latitude Longitude Altitude Speed Heading
2026-04-28 21:04 -2.14995 -79.88387 27 ft 0 kts 300°
2026-04-28 21:14 -2.15001 -79.88377 27 ft 2 kts 299°
2026-04-28 21:14 -2.15008 -79.88364 27 ft 2 kts 300°
2026-04-28 21:14 -2.15015 -79.88351 27 ft 2 kts 298°
2026-04-28 21:14 -2.15026 -79.88341 27 ft 2 kts 346°
2026-04-28 21:15 -2.15040 -79.88342 27 ft 0 kts 25°
2026-04-28 21:15 -2.15045 -79.88345 27 ft 1 kts 33°
2026-04-28 21:15 -2.15047 -79.88347 27 ft 0 kts 31°
2026-04-28 21:17 -2.15045 -79.88345 27 ft 2 kts 31°
2026-04-28 21:18 -2.15001 -79.88319 27 ft 11 kts 32°
2026-04-28 21:18 -2.14911 -79.88267 27 ft 17 kts 27°
2026-04-28 21:18 -2.14801 -79.88203 27 ft 18 kts 41°
2026-04-28 21:18 -2.14822 -79.88091 27 ft 17 kts 120°
2026-04-28 21:19 -2.14791 -79.88007 27 ft 11 kts 30°
2026-04-28 21:19 -2.14722 -79.87967 27 ft 11 kts 30°
2026-04-28 21:19 -2.14663 -79.87913 27 ft 11 kts 66°
2026-04-28 21:19 -2.14649 -79.87878 27 ft 0 kts 68°
2026-04-28 21:20 -2.14637 -79.87843 27 ft 16 kts 74°
2026-04-28 21:20 -2.14686 -79.87762 27 ft 12 kts 206°
2026-04-28 21:20 -2.14713 -79.87777 27 ft 0 kts 209°
2026-04-28 21:21 -2.14719 -79.87780 27 ft 6 kts 208°
2026-04-28 21:21 -2.14911 -79.87890 28 ft 67 kts 210°
2026-04-28 21:21 -2.15518 -79.88239 28 ft 132 kts 210°
2026-04-28 21:21 -2.16462 -79.88776 182 ft 169 kts 209°
2026-04-28 21:22 -2.17467 -79.89350 802 ft 166 kts 210°
2026-04-28 21:22 -2.18464 -79.89926 1419 ft 168 kts 211°
2026-04-28 21:22 -2.19524 -79.90387 1922 ft 171 kts 183°
2026-04-28 21:22 -2.20299 -79.90252 2097 ft 176 kts 148°
2026-04-28 21:23 -2.21199 -79.88906 2493 ft 188 kts 94°
2026-04-28 21:23 -2.20884 -79.87631 2781 ft 200 kts 52°
2026-04-28 21:23 -2.19858 -79.86608 3091 ft 220 kts 40°
2026-04-28 21:23 -2.18664 -79.85554 3503 ft 238 kts 42°
2026-04-28 21:24 -2.17399 -79.84404 3922 ft 256 kts 42°
2026-04-28 21:24 -2.16059 -79.83157 4481 ft 269 kts 42°
2026-04-28 21:24 -2.14690 -79.81877 5237 ft 273 kts 43°
2026-04-28 21:24 -2.13311 -79.80584 5732 ft 274 kts 43°
2026-04-28 21:25 -2.11925 -79.79276 6015 ft 277 kts 43°
2026-04-28 21:25 -2.10504 -79.77938 6686 ft 283 kts 43°
2026-04-28 21:25 -2.09089 -79.76608 7657 ft 281 kts 43°
2026-04-28 21:25 -2.07682 -79.75278 8496 ft 284 kts 43°
2026-04-28 21:26 -2.06243 -79.73922 9285 ft 287 kts 42°
2026-04-28 21:26 -2.04706 -79.72611 10064 ft 290 kts 37°
2026-04-28 21:26 -2.03030 -79.71459 10645 ft 300 kts 31°
2026-04-28 21:26 -2.01189 -79.70386 11151 ft 311 kts 30°
2026-04-28 21:27 -1.99290 -79.69314 11857 ft 315 kts 29°
2026-04-28 21:27 -1.97398 -79.68248 12565 ft 317 kts 29°
2026-04-28 21:27 -1.95490 -79.67170 13246 ft 320 kts 29°
2026-04-28 21:27 -1.93593 -79.66097 13909 ft 323 kts 29°
2026-04-28 21:28 -1.91645 -79.64993 14575 ft 326 kts 29°
2026-04-28 21:28 -1.89652 -79.63863 15241 ft 329 kts 29°
2026-04-28 21:28 -1.87656 -79.62736 15894 ft 332 kts 29°
2026-04-28 21:28 -1.85647 -79.61604 16534 ft 335 kts 29°
2026-04-28 21:29 -1.83627 -79.60464 17161 ft 338 kts 29°
2026-04-28 21:29 -1.81554 -79.59290 17792 ft 341 kts 29°
2026-04-28 21:29 -1.79512 -79.58132 18403 ft 344 kts 29°
2026-04-28 21:29 -1.77412 -79.56941 19020 ft 347 kts 29°
2026-04-28 21:30 -1.75302 -79.55743 19625 ft 350 kts 29°
2026-04-28 21:30 -1.73173 -79.54533 20221 ft 353 kts 29°
2026-04-28 21:30 -1.71032 -79.53317 20806 ft 356 kts 29°
2026-04-28 21:30 -1.68870 -79.52089 21378 ft 359 kts 29°
2026-04-28 21:31 -1.66700 -79.50855 21940 ft 362 kts 29°
2026-04-28 21:31 -1.64504 -79.49608 22478 ft 365 kts 29°
2026-04-28 21:31 -1.62295 -79.48354 22763 ft 367 kts 29°
2026-04-28 21:31 -1.60077 -79.47095 22805 ft 374 kts 29°
2026-04-28 21:32 -1.57770 -79.45778 22812 ft 392 kts 29°
2026-04-28 21:32 -1.55334 -79.44370 22834 ft 408 kts 29°
2026-04-28 21:32 -1.52845 -79.42927 22875 ft 422 kts 29°
2026-04-28 21:32 -1.50250 -79.41422 22937 ft 435 kts 29°
2026-04-28 21:33 -1.47621 -79.39896 23011 ft 447 kts 29°
2026-04-28 21:33 -1.44886 -79.38309 23089 ft 457 kts 29°
2026-04-28 21:33 -1.42095 -79.36691 23171 ft 466 kts 29°
2026-04-28 21:33 -1.39287 -79.35061 23244 ft 474 kts 29°
2026-04-28 21:34 -1.36402 -79.33378 23295 ft 480 kts 30°
2026-04-28 21:34 -1.33535 -79.31698 23329 ft 481 kts 30°
2026-04-28 21:34 -1.30618 -79.29991 23352 ft 482 kts 30°
2026-04-28 21:34 -1.27733 -79.28307 23366 ft 481 kts 30°
2026-04-28 21:35 -1.24840 -79.26623 23374 ft 481 kts 30°
2026-04-28 21:35 -1.21941 -79.24937 23378 ft 481 kts 30°
2026-04-28 21:35 -1.19053 -79.23260 23378 ft 481 kts 29°
2026-04-28 21:35 -1.16158 -79.21579 23377 ft 481 kts 29°
2026-04-28 21:36 -1.13268 -79.19900 23373 ft 481 kts 29°
2026-04-28 21:36 -1.10404 -79.18238 23370 ft 481 kts 29°
2026-04-28 21:36 -1.07499 -79.16552 23367 ft 481 kts 29°
2026-04-28 21:36 -1.04625 -79.14884 23365 ft 480 kts 30°
2026-04-28 21:37 -1.01725 -79.13201 23364 ft 480 kts 30°
2026-04-28 21:37 -0.98861 -79.11540 23364 ft 479 kts 30°
2026-04-28 21:37 -0.95957 -79.09855 23363 ft 479 kts 30°
2026-04-28 21:37 -0.93086 -79.08189 23362 ft 479 kts 30°
2026-04-28 21:38 -0.90242 -79.06538 23361 ft 479 kts 30°
2026-04-28 21:38 -0.87356 -79.04867 23360 ft 479 kts 30°
2026-04-28 21:38 -0.84452 -79.03196 23359 ft 479 kts 30°
2026-04-28 21:38 -0.81518 -79.01634 23359 ft 480 kts 27°
2026-04-28 21:39 -0.78533 -79.00227 23359 ft 480 kts 24°
2026-04-28 21:39 -0.75445 -78.98954 23358 ft 481 kts 22°
2026-04-28 21:39 -0.72306 -78.97740 23359 ft 481 kts 21°
2026-04-28 21:39 -0.69182 -78.96543 23359 ft 482 kts 21°
2026-04-28 21:40 -0.66045 -78.95344 23359 ft 482 kts 21°
2026-04-28 21:40 -0.62929 -78.94152 23359 ft 482 kts 21°
2026-04-28 21:40 -0.59799 -78.92954 23359 ft 482 kts 21°
2026-04-28 21:40 -0.56658 -78.91752 23359 ft 482 kts 21°
2026-04-28 21:41 -0.53541 -78.90559 23359 ft 482 kts 21°
2026-04-28 21:41 -0.50417 -78.89362 23359 ft 482 kts 21°
2026-04-28 21:41 -0.47281 -78.88161 23359 ft 482 kts 21°
2026-04-28 21:41 -0.44174 -78.86970 23358 ft 482 kts 21°
2026-04-28 21:42 -0.41028 -78.85766 23350 ft 482 kts 21°
2026-04-28 21:42 -0.37904 -78.84569 23339 ft 482 kts 21°
2026-04-28 21:42 -0.34748 -78.83360 23324 ft 482 kts 21°
2026-04-28 21:42 -0.31600 -78.82154 23308 ft 482 kts 22°
2026-04-28 21:43 -0.28488 -78.80962 23292 ft 482 kts 21°
2026-04-28 21:43 -0.25357 -78.79762 23279 ft 482 kts 21°
2026-04-28 21:43 -0.22183 -78.78546 23269 ft 482 kts 22°
2026-04-28 21:43 -0.19082 -78.77358 23263 ft 482 kts 22°
2026-04-28 21:44 -0.15926 -78.76148 23258 ft 482 kts 22°
2026-04-28 21:44 -0.12773 -78.74940 23255 ft 482 kts 21°
2026-04-28 21:44 -0.09644 -78.73741 23253 ft 482 kts 22°
2026-04-28 21:44 -0.06548 -78.72555 23252 ft 482 kts 21°
2026-04-28 21:45 -0.03398 -78.71347 23252 ft 482 kts 21°
2026-04-28 21:45 -0.00256 -78.70142 23251 ft 482 kts 22°
2026-04-28 21:45 0.02874 -78.68943 23251 ft 482 kts 21°
2026-04-28 21:45 0.06006 -78.67742 23251 ft 482 kts 21°
2026-04-28 21:46 0.08973 -78.66347 23230 ft 470 kts 34°
2026-04-28 21:46 0.11293 -78.64161 23238 ft 446 kts 54°
2026-04-28 21:46 0.12694 -78.61481 22773 ft 433 kts 72°
2026-04-28 21:46 0.13023 -78.58585 22298 ft 405 kts 95°
2026-04-28 21:47 0.12253 -78.56010 21896 ft 381 kts 118°
2026-04-28 21:47 0.10586 -78.53999 21511 ft 371 kts 139°
2026-04-28 21:47 0.08400 -78.52695 21102 ft 371 kts 158°
2026-04-28 21:47 0.05876 -78.52143 20711 ft 370 kts 172°
2026-04-28 21:48 0.03339 -78.51917 20326 ft 370 kts 174°
2026-04-28 21:48 0.00762 -78.51681 19929 ft 363 kts 173°
2026-04-28 21:48 -0.01704 -78.51412 19548 ft 353 kts 172°
2026-04-28 21:48 -0.04113 -78.51121 19169 ft 348 kts 172°
2026-04-28 21:49 -0.06492 -78.50858 18790 ft 346 kts 172°
2026-04-28 21:49 -0.08879 -78.50613 18413 ft 345 kts 173°
2026-04-28 21:49 -0.11257 -78.50370 18254 ft 336 kts 173°
2026-04-28 21:49 -0.13510 -78.50140 18250 ft 322 kts 173°
2026-04-28 21:50 -0.15729 -78.49940 18089 ft 314 kts 174°
2026-04-28 21:50 -0.17865 -78.49773 17890 ft 308 kts 174°
2026-04-28 21:50 -0.19975 -78.49613 17691 ft 301 kts 174°
2026-04-28 21:50 -0.22037 -78.49455 17496 ft 294 kts 174°
2026-04-28 21:51 -0.24049 -78.49297 17306 ft 287 kts 174°
2026-04-28 21:51 -0.26043 -78.49140 17118 ft 281 kts 174°
2026-04-28 21:51 -0.27970 -78.48988 16937 ft 274 kts 174°
2026-04-28 21:51 -0.29827 -78.48841 16741 ft 268 kts 174°
2026-04-28 21:52 -0.31672 -78.48695 16560 ft 263 kts 174°
2026-04-28 21:52 -0.33502 -78.48550 16386 ft 262 kts 174°
2026-04-28 21:52 -0.35290 -78.48329 16075 ft 263 kts 165°
2026-04-28 21:52 -0.37033 -78.47749 15680 ft 264 kts 153°
2026-04-28 21:53 -0.38626 -78.46828 15290 ft 265 kts 144°
2026-04-28 21:53 -0.40078 -78.45700 14894 ft 267 kts 137°
2026-04-28 21:53 -0.41386 -78.44398 14500 ft 268 kts 130°
2026-04-28 21:53 -0.42364 -78.42844 14299 ft 259 kts 104°
2026-04-28 21:54 -0.42372 -78.41077 13918 ft 260 kts 71°
2026-04-28 21:54 -0.41340 -78.39631 13493 ft 264 kts 35°
2026-04-28 21:54 -0.39666 -78.38877 13089 ft 265 kts 20°
2026-04-28 21:54 -0.37941 -78.38216 12646 ft 268 kts 23°
2026-04-28 21:55 -0.36223 -78.37482 12211 ft 270 kts 25°
2026-04-28 21:55 -0.34534 -78.36728 11788 ft 261 kts 25°
2026-04-28 21:55 -0.32921 -78.35998 11390 ft 253 kts 25°
2026-04-28 21:55 -0.31326 -78.35274 10928 ft 248 kts 26°
2026-04-28 21:56 -0.29731 -78.34709 10573 ft 239 kts
2026-04-28 21:56 -0.28148 -78.34660 10579 ft 217 kts 359°
2026-04-28 21:56 -0.26691 -78.34768 10651 ft 206 kts 357°
2026-04-28 21:56 -0.25283 -78.34881 10411 ft 202 kts 358°
2026-04-28 21:57 -0.23903 -78.34960 9957 ft 199 kts 359°
2026-04-28 21:57 -0.22561 -78.35017 9667 ft 188 kts 360°
2026-04-28 21:57 -0.21301 -78.35068 9403 ft 176 kts 360°
2026-04-28 21:57 -0.20107 -78.35117 9152 ft 165 kts 360°
2026-04-28 21:58 -0.18988 -78.35163 8927 ft 159 kts 360°
2026-04-28 21:58 -0.17900 -78.35209 8721 ft 158 kts 359°
2026-04-28 21:58 -0.16804 -78.35255 8487 ft 157 kts 359°
2026-04-28 21:58 -0.15714 -78.35302 8258 ft 157 kts 359°
2026-04-28 21:59 -0.14636 -78.35349 8056 ft 153 kts 358°
2026-04-28 21:59 -0.13614 -78.35394 7905 ft 140 kts 358°
2026-04-28 21:59 -0.12779 -78.35428 7856 ft 95 kts 360°
2026-04-28 22:00 -0.11879 -78.35468 7793 ft 56 kts 348°
2026-04-28 22:00 -0.11625 -78.35589 7781 ft 21 kts 305°
2026-04-28 22:00 -0.11698 -78.35642 7783 ft 18 kts 178°
2026-04-28 22:00 -0.11851 -78.35637 7789 ft 25 kts 178°
2026-04-28 22:01 -0.12031 -78.35630 7797 ft 23 kts 176°
2026-04-28 22:01 -0.12163 -78.35623 7805 ft 16 kts 178°
2026-04-28 22:01 -0.12273 -78.35619 7812 ft 15 kts 178°
2026-04-28 22:01 -0.12356 -78.35655 7815 ft 13 kts 254°
2026-04-28 22:02 -0.12361 -78.35744 7811 ft 11 kts 268°
2026-04-28 22:02 -0.12362 -78.35800 7807 ft 7 kts 268°